Flag Weather past 2 weeks in Lexington, Virginia, U.S.A.

Now
37 °F

Sunny.


Feels Like: 32 °F
Forecast: 39 / 58 °F
Wind: 7 mph from West

Location: Hot Springs / Ingalls

Current Time: Oct 30, 2014 at 10:13:49 AM

Latest Report: Oct 30, 2014 at 9:55 AM


Visibility: 10 mi

Pressure: 30.03 "Hg

Humidity: 83%

Dew point: 33 °F

Location of LexingtonLocation

Historic Weather in Lexington — Graph

°F

Lexington temperature yesterday

Maximum temperature yesterday: 61 °F (at 12:15 AM)
Minimum temperature yesterday: 43 °F (at 11:55 PM)
Average temperature yesterday: 50 °F

Past Weeks' High & Low Weather Summary

 TemperatureHumidityPressure
High71 °F (Oct 28, 3:15 PM)100% (Oct 15, 8:55 AM)30.17 "Hg (Oct 15, 8:55 AM)
Low36 °F (Oct 19, 7:15 AM)10% (Oct 20, 3:30 AM)29.71 "Hg (Oct 18, 4:55 AM)
Average49 °F72%29.96 "Hg
* Reported Oct 15 8:15 AM — Oct 30 8:55 AM, Lexington, Weather by CustomWeather, © 2014

Note: Actual official high and low records may vary slightly from our data, if they occured in-between our weather recording intervals... More about our weather records

Advertising

Lexington weather history for previous 24 hours

 ConditionsComfort  
Time TempWeatherWind HumidityBarometerVisibility
8:55 AM
Oct 30
37 °FSunny.7 mph83%30.02 "Hg10 mi
8:35 AM36 °FClear.5 mph83%30.02 "Hg10 mi
8:15 AM36 °FClear.9 mph85%30.01 "Hg10 mi
7:55 AM36 °FClear.7 mph84%30.00 "Hg10 mi
7:35 AM36 °FClear.8 mph87%30.00 "Hg10 mi
7:15 AM36 °FClear.9 mph90%30.00 "Hg10 mi
6:55 AM36 °FClear.9 mph93%30.00 "Hg10 mi
6:35 AM36 °FClear.10 mph93%30.00 "Hg10 mi
6:15 AM36 °FPassing clouds.9 mph93%30.00 "Hg10 mi
5:55 AM36 °FClear.12 mph93%30.00 "Hg10 mi
5:35 AM37 °FClear.9 mph92%30.00 "Hg10 mi
5:15 AM37 °FClear.9 mph92%29.99 "Hg10 mi
4:55 AM36 °FClear.10 mph93%29.98 "Hg10 mi
4:35 AM37 °FClear.10 mph90%29.99 "Hg10 mi
4:15 AM37 °FClear.7 mph87%29.99 "Hg10 mi
3:55 AM38 °FClear.8 mph85%29.99 "Hg10 mi
3:15 AM39 °FClear.12 mph82%29.99 "Hg10 mi
2:55 AM39 °FClear.12 mph78%29.99 "Hg10 mi
2:15 AM41 °FClear.9 mph71%29.99 "Hg10 mi
1:55 AM41 °FClear.9 mph70%29.99 "Hg10 mi
1:35 AM41 °FClear.10 mph69%29.99 "Hg10 mi
1:15 AM42 °FClear.14 mph68%29.99 "Hg10 mi
12:55 AM43 °FClear.15 mph66%29.98 "Hg10 mi
12:35 AM43 °FClear.15 mph66%29.98 "Hg10 mi
12:15 AM43 °FClear.13 mph66%29.99 "Hg10 mi
11:55 PM
Oct 29
43 °FClear.9 mph68%29.99 "Hg10 mi
11:15 PM44 °FClear.13 mph68%30.00 "Hg10 mi
10:55 PM43 °FClear.12 mph69%30.00 "Hg10 mi
10:15 PM44 °FClear.13 mph69%30.00 "Hg10 mi
9:55 PM44 °FClear.10 mph68%30.00 "Hg10 mi
9:15 PM44 °FClear.10 mph67%30.00 "Hg10 mi
8:55 PM45 °FClear.14 mph66%30.00 "Hg10 mi
8:35 PM45 °FClear.12 mph67%30.00 "Hg10 mi
8:15 PM45 °FClear.9 mph66%30.01 "Hg10 mi
7:55 PM45 °FClear.8 mph66%30.01 "Hg10 mi
7:35 PM46 °FClear.10 mph64%30.01 "Hg10 mi
7:15 PM46 °FSunny.9 mph63%30.00 "Hg10 mi
6:55 PM47 °FSunny.15 mph61%30.00 "Hg10 mi
6:35 PM47 °FSunny.13 mph59%29.99 "Hg10 mi
6:15 PM48 °FSunny.12 mph56%29.99 "Hg10 mi
5:55 PM49 °FSunny.16 mph53%29.98 "Hg10 mi
5:15 PM51 °FSunny.12 mph49%29.97 "Hg10 mi
4:55 PM51 °FSunny.12 mph52%29.97 "Hg10 mi
4:15 PM52 °FSunny.13 mph55%29.97 "Hg10 mi
3:55 PM51 °FSunny.10 mph58%29.96 "Hg10 mi
3:35 PM51 °FSunny.14 mph60%29.96 "Hg10 mi
3:15 PM51 °FScattered clouds.13 mph67%29.96 "Hg10 mi
2:55 PM49 °FPartly sunny.13 mph73%29.96 "Hg10 mi
2:35 PM49 °FPartly sunny.15 mph81%29.96 "Hg10 mi
2:15 PM48 °FPartly sunny.14 mph80%29.97 "Hg10 mi
1:55 PM47 °FScattered clouds.15 mph87%29.97 "Hg10 mi
1:35 PM46 °FLow clouds.15 mph100%29.97 "Hg10 mi
1:15 PM46 °FLow clouds.15 mph100%29.98 "Hg10 mi
12:55 PM45 °FFog.18 mph100%29.98 "Hg0 mi
12:35 PM46 °FLight rain. Low clouds.17 mph100%30.00 "Hg0 mi
12:15 PM46 °FDrizzle. Low clouds.14 mph100%30.00 "Hg0 mi
11:55 AM46 °FLight rain. Low clouds.16 mph100%30.01 "Hg0 mi
11:35 AM46 °FLight rain. Low clouds.14 mph100%30.00 "Hg0 mi
11:15 AM46 °FRain. Low clouds.8 mph100%30.00 "Hg0 mi
10:55 AM46 °FRain. Low clouds.16 mph100%30.02 "Hg0 mi
10:15 AM47 °FLight snow. Low clouds.17 mph100%30.02 "Hg0 mi
Weather by CustomWeather, © 2014

See weather overviewHow to use our weather pages